TimeEST,TemperatureF,Dew PointF,Humidity,Sea Level PressureIn,VisibilityMPH,Wind Direction,Wind SpeedMPH,Gust SpeedMPH,PrecipitationIn,Events,Conditions,WindDirDegrees,DateUTC
12:54 AM,32.0,23.0,69,30.37,10.0,ENE,6.9,-,N/A,,Overcast,70,2012-02-08 05:54:00
1:54 AM,32.0,21.9,66,30.36,10.0,East,4.6,-,N/A,,Overcast,80,2012-02-08 06:54:00
2:54 AM,30.9,19.9,64,30.36,10.0,East,4.6,-,N/A,,Overcast,80,2012-02-08 07:54:00
3:54 AM,30.9,19.9,64,30.36,10.0,ENE,3.5,-,N/A,,Overcast,60,2012-02-08 08:54:00
4:54 AM,30.9,19.9,64,30.35,10.0,ENE,4.6,-,N/A,,Overcast,70,2012-02-08 09:54:00
5:54 AM,28.9,19.9,69,30.36,10.0,Calm,Calm,-,N/A,,Mostly Cloudy,0,2012-02-08 10:54:00
6:54 AM,28.9,19.9,69,30.36,10.0,NNE,6.9,-,N/A,,Overcast,30,2012-02-08 11:54:00
7:54 AM,28.0,19.0,69,30.37,10.0,NE,3.5,-,N/A,,Overcast,50,2012-02-08 12:54:00
8:54 AM,30.0,19.0,64,30.38,10.0,Calm,Calm,-,N/A,,Overcast,0,2012-02-08 13:54:00
9:54 AM,32.0,19.0,59,30.38,10.0,Calm,Calm,-,N/A,,Scattered Clouds,0,2012-02-08 14:54:00
10:54 AM,32.0,19.9,61,30.38,10.0,NNW,6.9,-,N/A,,Overcast,330,2012-02-08 15:54:00
11:45 AM,32.0,21.2,64,30.35,10.0,NW,6.9,-,N/A,,Overcast,310,2012-02-08 16:45:00
11:54 AM,32.0,21.0,64,30.38,10.0,NNW,9.2,-,N/A,,Overcast,330,2012-02-08 16:54:00
12:43 PM,33.8,21.2,60,30.33,10.0,NW,6.9,-,N/A,,Overcast,310,2012-02-08 17:43:00
12:54 PM,32.0,19.9,61,30.36,10.0,NW,11.5,-,N/A,,Overcast,320,2012-02-08 17:54:00
1:02 PM,33.8,21.2,60,30.33,10.0,NNW,11.5,-,N/A,,Overcast,340,2012-02-08 18:02:00
1:54 PM,33.1,19.9,59,30.34,10.0,WNW,15.0,-,N/A,,Overcast,300,2012-02-08 18:54:00
2:54 PM,34.0,19.9,56,30.32,10.0,WNW,12.7,-,N/A,,Overcast,290,2012-02-08 19:54:00
3:54 PM,32.0,21.0,64,30.33,10.0,WNW,13.8,-,N/A,,Overcast,300,2012-02-08 20:54:00
4:54 PM,32.0,19.9,61,30.32,10.0,WNW,6.9,-,N/A,,Overcast,300,2012-02-08 21:54:00
5:54 PM,28.9,19.0,67,30.32,10.0,WNW,5.8,-,N/A,,Clear,290,2012-02-08 22:54:00
6:54 PM,26.1,17.1,69,30.32,10.0,West,4.6,-,N/A,,Clear,270,2012-02-08 23:54:00
7:54 PM,26.1,17.1,69,30.33,10.0,SW,3.5,-,N/A,,Clear,230,2012-02-09 00:54:00
8:54 PM,24.1,17.1,75,30.32,10.0,SW,4.6,-,N/A,,Clear,230,2012-02-09 01:54:00
9:54 PM,21.9,16.0,78,30.32,10.0,SW,5.8,-,N/A,,Clear,230,2012-02-09 02:54:00
10:54 PM,24.1,17.1,75,30.32,10.0,WSW,6.9,-,N/A,,Clear,240,2012-02-09 03:54:00
11:54 PM,25.0,18.0,75,30.32,10.0,WSW,8.1,-,N/A,,Clear,240,2012-02-09 04:54:00